Theta_e
285 285 284 284 284 283 283 282 282 282 281 282 281 283 282 284 284 284 284 284 285 284 284 283 282 282 282 282 281 282 282 283 282 282 282 282 283 283 282 282 282 282 282 282 281 282 282 282 283 283 283 283 283 283 285 286 289 291 292 293 293 293 294 295 295 296 295 294 295 296 299 303 307 313 318 320 321 322 323 323 323 323 324 325 326
284 283 283 282 282 282 282 281 285 283 283 282 281 282 282 283 283 283 284 284 284 284 284 283 283 282 281 280 280 280 281 281 280 281 282 283 282 282 282 282 281 281 282 281 281 281 281 281 281 281 282 281 282 283 284 287 287 289 291 292 294 293 292 294 295 295 292 291 291 292 295 297 301 307 315 319 320 321 322 322 323 322 323 324 325
283 283 283 282 282 282 281 282 281 280 281 281 281 281 282 283 283 283 283 284 284 285 284 283 283 283 282 281 281 280 281 281 281 282 282 281 281 281 281 281 281 281 281 281 281 281 281 281 281 281 281 281 281 282 283 284 286 288 290 291 291 293 293 295 295 296 292 293 294 292 289 292 299 306 313 317 319 320 321 321 321 322 322 323 323
283 282 281 281 281 281 280 280 281 281 281 281 281 281 282 284 282 282 283 283 283 284 286 283 284 284 282 282 281 281 280 283 281 281 280 280 280 281 280 280 280 280 280 280 280 280 280 280 280 280 280 281 281 280 281 283 285 287 289 291 292 290 291 292 294 295 295 292 287 290 292 292 290 294 304 311 317 318 319 319 319 320 321 321 322
283 282 281 280 280 280 280 281 280 280 280 280 281 281 284 282 282 282 283 283 283 284 282 283 283 281 281 281 281 280 280 279 279 279 279 280 280 279 279 280 280 280 280 280 280 280 280 280 280 280 280 280 280 279 279 281 283 285 289 290 291 291 290 292 293 294 295 296 291 288 287 288 289 296 296 298 310 314 317 318 316 318 319 319 319
283 283 282 281 280 280 280 280 279 280 280 280 281 281 281 282 282 282 282 282 282 282 282 282 281 280 279 279 278 278 277 278 277 277 278 278 278 279 279 279 279 279 279 279 279 280 279 279 279 279 279 279 279 279 279 280 282 286 289 291 291 293 293 292 291 293 294 295 296 294 292 288 289 291 292 288 301 306 309 316 316 317 317 316 317
280 282 281 280 279 280 280 279 280 279 280 280 280 281 281 282 281 282 281 282 283 282 282 282 280 279 278 278 278 277 277 278 278 278 278 279 279 278 279 279 279 278 278 279 279 279 279 279 279 278 278 278 278 278 278 279 281 283 287 290 291 292 293 291 291 291 291 293 294 295 295 295 295 292 288 292 290 298 305 308 314 316 316 315 315
280 280 280 280 280 280 280 281 279 281 280 280 280 280 281 281 281 281 282 283 282 281 281 281 280 279 278 278 279 278 278 277 278 278 279 279 278 278 278 278 278 278 278 278 278 278 279 278 278 277 277 277 278 278 278 279 280 283 287 290 291 292 292 291 292 292 289 289 293 292 294 295 296 296 295 291 290 290 293 304 309 313 314 315 315
281 281 280 280 280 280 280 280 280 279 280 280 280 281 281 281 282 281 281 280 281 280 282 280 281 280 279 278 277 278 278 279 279 279 278 278 277 277 277 277 277 278 278 278 278 278 278 278 277 277 276 276 278 278 277 278 278 279 283 287 290 290 291 292 293 292 291 290 289 289 292 293 293 294 293 293 291 290 292 297 304 307 311 313 314
280 281 280 280 280 280 280 280 279 280 280 281 281 280 280 280 281 282 280 280 280 280 280 279 279 280 278 277 277 277 278 277 277 276 276 277 276 276 276 276 276 277 277 277 277 277 277 277 277 276 276 276 277 276 276 277 278 280 283 288 289 289 291 291 292 293 292 292 291 291 289 291 291 291 291 291 292 293 291 293 302 304 304 308 312
280 280 280 280 280 279 279 280 279 279 279 279 280 280 280 280 280 280 280 280 280 280 279 279 278 278 278 277 277 276 277 276 276 275 276 275 275 275 275 276 276 276 277 277 277 276 276 277 276 276 276 277 276 275 275 276 277 281 285 286 288 289 290 290 291 292 293 292 292 292 291 291 289 288 289 290 292 292 294 298 302 306 307 306 309
279 279 279 280 279 278 278 278 279 279 279 279 279 279 280 280 280 279 279 279 279 279 279 278 278 278 277 277 277 277 276 276 275 274 275 274 275 274 275 275 275 276 275 275 275 275 276 275 276 275 275 275 275 275 275 276 277 278 278 281 286 289 288 288 289 290 293 293 293 293 292 293 292 291 292 292 291 290 291 291 296 305 306 307 308
279 279 280 279 279 279 278 279 278 278 279 279 279 278 279 279 279 278 279 279 279 278 278 278 277 277 277 277 276 277 276 276 275 274 275 274 274 274 274 274 274 274 274 274 275 275 275 274 274 274 274 275 275 275 275 276 276 276 277 280 285 285 285 286 286 287 290 292 292 293 293 292 292 294 294 293 293 294 291 289 290 296 304 304 304
280 279 279 279 279 279 279 279 278 278 278 279 278 279 279 279 278 278 279 278 278 278 277 277 277 277 277 276 276 276 275 275 275 275 275 275 275 274 274 274 273 273 274 274 274 275 275 275 275 274 275 274 275 275 275 275 276 276 277 279 281 282 284 285 285 286 289 291 292 291 291 292 293 293 293 294 293 292 292 291 291 293 303 304 298
279 279 279 279 279 278 279 279 278 278 278 278 278 278 278 277 278 278 278 278 277 277 277 276 277 276 276 276 276 275 275 275 275 276 275 274 274 274 274 274 273 273 274 274 275 274 274 274 274 274 274 274 274 274 275 275 275 275 275 277 279 282 283 284 285 286 288 290 290 290 291 292 293 293 293 293 294 294 293 293 293 291 296 301 301
279 279 279 278 278 278 278 278 278 278 278 278 278 278 277 277 277 277 277 277 277 277 276 276 276 276 275 275 275 275 276 275 275 275 274 274 273 273 273 273 273 274 274 274 274 274 274 274 274 273 274 274 274 274 274 273 274 274 274 277 278 282 282 283 284 286 287 289 290 291 291 292 293 293 293 294 294 295 295 295 295 293 293 296 301
278 279 278 278 277 277 278 278 278 278 278 278 278 277 277 277 277 277 276 276 276 276 275 275 275 274 274 274 274 274 273 273 273 273 273 273 273 273 273 273 273 274 274 274 274 274 274 273 273 273 273 273 273 273 273 273 274 274 275 276 277 279 281 283 284 284 286 289 291 291 291 292 292 293 293 293 294 295 295 296 297 295 295 298 298
278 278 278 278 278 278 278 278 278 278 277 277 277 277 277 277 276 276 276 275 275 275 275 275 274 274 274 274 273 273 273 273 273 272 273 272 272 272 273 272 273 273 274 274 274 273 273 274 273 273 273 272 273 273 273 273 274 274 273 274 276 279 282 282 283 284 285 288 290 291 291 292 293 293 293 294 294 295 295 296 297 297 297 297 302
278 278 278 278 277 278 277 278 277 277 278 277 277 277 277 276 276 276 276 275 275 275 274 274 274 274 274 273 273 273 273 272 272 272 272 271 271 272 272 272 272 273 273 273 272 272 272 272 272 272 272 272 272 272 273 273 273 272 273 275 278 280 280 280 282 284 285 287 289 290 291 291 292 293 293 294 294 294 295 296 297 298 298 298 302
278 278 278 278 278 277 277 277 276 276 276 276 276 276 276 275 275 275 275 274 274 274 273 273 273 273 273 272 272 272 272 272 271 271 271 271 271 271 271 272 272 273 272 272 272 272 272 272 272 272 272 272 272 272 272 272 273 273 274 274 275 278 279 280 282 283 284 286 288 289 290 291 292 292 293 293 294 295 296 296 297 297 298 299 301
278 278 278 278 277 276 276 275 275 275 276 277 276 275 275 275 274 274 274 274 273 273 273 272 272 272 272 271 271 271 270 271 270 270 270 270 271 272 271 272 272 271 272 271 271 272 272 272 271 272 271 271 271 272 272 272 272 272 272 273 273 274 276 278 280 281 283 284 286 289 290 290 291 291 292 292 293 294 295 296 297 297 298 299 300
278 278 278 277 277 276 275 275 275 275 275 275 275 275 274 274 274 273 273 273 272 272 272 272 271 271 270 270 270 270 270 270 269 269 269 270 270 271 271 271 271 271 272 271 271 272 272 272 271 271 271 271 271 271 271 271 271 271 271 272 272 273 274 277 279 279 281 283 286 289 289 290 291 290 291 292 293 294 295 295 296 297 298 299 301
278 277 277 277 277 276 276 275 275 275 275 274 274 274 274 273 273 273 272 272 272 271 271 271 270 270 270 269 269 269 269 269 269 269 269 270 270 270 271 271 271 271 271 272 272 271 271 271 271 271 271 271 271 271 271 271 271 271 270 271 272 274 275 277 278 279 280 282 284 287 288 289 290 290 290 291 292 293 294 294 295 297 298 299 302
278 277 277 277 276 275 275 275 275 275 274 275 274 274 274 273 272 272 271 271 271 271 270 270 269 269 269 268 268 268 268 268 268 269 269 269 270 270 271 270 271 271 271 271 271 271 270 270 269 269 270 270 270 271 271 272 271 271 271 272 273 274 275 277 278 278 279 280 282 285 288 288 289 288 289 289 291 292 293 294 295 297 298 300 302
276 276 277 276 275 274 275 275 275 275 274 274 274 273 273 272 272 271 271 271 270 270 269 269 268 268 268 267 267 268 268 268 268 268 268 269 270 270 270 270 270 270 270 269 269 269 268 268 268 268 269 269 269 269 270 270 271 272 272 272 272 272 272 273 275 278 279 279 281 283 286 288 288 287 287 288 290 290 292 293 295 297 298 300 303
277 276 276 276 276 275 274 274 274 274 273 273 272 272 271 271 271 270 270 269 269 269 268 268 267 267 266 266 267 267 267 267 267 268 268 269 269 269 269 269 269 268 267 267 267 267 267 266 267 267 267 268 268 269 269 269 270 270 270 270 270 270 271 272 273 276 278 279 280 282 286 288 288 287 287 288 289 290 291 293 294 296 298 301 302
277 277 276 275 275 274 274 273 273 273 272 272 271 270 270 270 269 269 269 268 268 268 267 266 266 266 266 266 266 266 267 267 267 268 268 268 268 268 268 267 267 266 266 265 265 265 266 266 266 266 266 267 267 268 268 269 269 269 269 269 270 270 271 272 273 275 277 278 280 283 285 287 287 288 287 287 288 289 290 291 293 295 298 300 301
276 276 275 275 275 274 273 273 272 273 272 271 271 269 268 267 267 268 268 267 267 266 265 265 265 265 265 266 266 266 267 267 267 268 267 267 267 266 266 266 265 264 264 264 264 264 265 265 265 266 266 267 267 267 268 268 269 269 269 269 269 270 270 271 273 274 276 278 279 281 283 286 287 288 287 287 287 287 288 287 290 293 297 301 300
276 276 275 275 274 273 273 272 272 271 271 269 268 267 267 267 267 266 266 265 265 265 264 264 264 264 265 266 266 266 267 267 266 266 265 265 265 265 265 264 264 264 264 264 264 264 264 264 265 266 266 267 267 268 268 269 269 269 269 269 270 270 270 270 271 273 275 277 279 281 284 286 287 288 287 287 287 287 286 286 287 290 294 301 299
276 276 275 275 274 273 273 272 270 269 268 267 267 267 266 266 266 265 265 265 264 264 264 264 264 264 265 265 265 265 266 265 265 264 264 264 263 263 263 263 263 263 263 263 263 264 264 264 265 265 266 267 267 268 270 273 274 271 271 271 272 272 272 273 273 274 275 277 279 281 283 285 286 286 287 286 287 287 287 287 288 289 291 298 297
276 275 275 274 273 273 271 270 269 268 267 267 266 266 265 265 265 264 264 264 264 263 263 263 263 264 264 264 264 264 264 263 263 263 262 262 262 262 262 262 262 262 262 263 263 264 264 264 265 265 265 266 267 268 272 274 275 276 274 272 272 273 274 274 274 275 275 277 279 280 282 283 285 286 286 286 287 288 288 288 288 289 290 294 297
276 275 275 273 273 272 271 270 268 267 266 266 265 265 265 264 264 263 263 263 263 263 263 263 263 263 264 264 263 263 262 262 262 261 261 261 261 261 261 261 261 261 262 263 263 263 264 265 265 266 266 266 267 271 273 274 275 276 276 273 273 273 273 273 273 274 276 278 279 281 282 283 284 285 285 286 286 287 287 288 288 289 291 293 298
276 275 274 274 273 272 271 269 267 266 266 265 265 264 264 263 263 263 263 262 262 262 262 262 263 263 263 263 262 261 261 260 260 260 260 260 260 260 260 261 261 262 263 263 263 264 264 265 265 265 266 266 267 271 273 275 275 276 277 276 273 273 273 273 273 274 275 278 280 280 281 283 284 285 286 286 286 286 287 287 287 289 291 293 297
276 275 274 273 272 271 269 268 267 266 266 265 265 263 263 263 263 262 262 262 262 261 261 261 262 262 262 261 261 260 259 259 260 260 260 260 260 260 261 262 263 263 263 263 263 263 264 265 265 266 266 267 267 271 274 275 275 276 277 276 273 273 273 273 273 274 275 277 278 280 280 281 283 285 285 286 286 286 286 287 287 289 292 294 296
275 274 273 273 272 270 267 266 266 265 265 264 263 263 262 262 262 261 261 261 261 261 260 261 261 261 260 260 260 259 259 259 259 259 259 259 260 261 262 263 263 263 263 263 263 263 264 265 266 266 267 267 268 273 275 276 276 277 278 277 274 274 274 274 274 275 276 277 279 280 281 281 282 284 285 286 286 286 286 286 286 286 290 296 299
275 274 273 271 270 268 267 266 266 264 264 263 262 262 261 260 261 260 260 260 260 259 260 260 259 259 259 259 259 258 258 258 259 259 259 260 261 262 262 263 263 263 264 264 265 265 265 265 266 267 267 267 268 274 275 276 277 277 278 275 274 274 273 273 274 275 277 279 280 280 280 281 282 283 285 287 287 286 285 285 285 286 289 296 299
275 274 271 270 269 267 266 265 264 263 262 261 261 260 260 259 259 259 259 259 259 259 259 259 258 258 258 258 258 258 257 258 258 259 259 260 261 262 262 263 263 263 263 263 263 264 265 266 266 267 267 268 268 272 275 276 277 277 277 274 274 273 273 273 273 275 276 278 280 280 280 280 281 283 285 287 288 287 285 285 285 286 288 294 297
271 269 268 267 266 266 265 263 263 262 261 261 260 259 259 258 258 258 258 258 258 258 258 258 257 258 258 258 258 257 257 257 258 258 260 261 262 262 262 263 262 262 262 262 263 263 265 266 266 267 268 268 269 272 276 277 278 278 277 274 274 273 273 273 273 275 276 278 280 281 281 280 281 282 285 287 288 287 285 285 285 285 287 291 295
269 268 266 265 265 264 263 263 262 260 260 260 259 258 258 257 257 257 257 257 257 257 257 257 257 257 257 257 257 257 257 257 258 259 260 261 261 261 262 262 262 262 262 262 263 263 264 265 267 267 270 270 270 273 276 277 278 279 277 275 274 273 273 273 273 274 276 278 279 281 282 282 282 283 286 287 288 287 285 285 286 286 287 290 295
268 267 266 265 264 263 262 261 260 260 259 259 258 258 256 257 256 256 256 256 256 256 257 257 257 257 257 257 257 257 257 258 259 259 260 261 261 261 261 261 261 261 261 262 263 263 264 265 267 268 269 271 271 272 275 278 279 279 280 277 275 274 272 272 273 274 276 278 279 280 281 283 284 285 286 287 288 288 286 286 286 285 286 290 296
266 265 266 263 263 262 261 260 260 259 258 258 257 256 256 256 256 256 256 256 256 257 256 256 256 256 256 256 257 257 257 258 259 260 260 260 261 261 261 260 260 261 261 262 262 264 264 265 267 269 269 270 272 272 273 277 278 279 280 280 277 275 274 274 273 274 275 276 278 279 280 282 283 284 286 287 288 289 288 286 286 285 287 291 294
266 266 263 262 261 260 260 259 259 259 258 258 256 256 256 255 255 255 255 256 256 256 255 255 255 255 255 255 256 257 258 259 259 260 259 259 260 260 260 260 260 260 261 261 263 263 264 265 267 269 269 270 272 273 271 274 277 278 280 281 279 277 277 275 274 274 275 276 277 279 280 282 284 285 285 287 288 289 289 287 286 288 290 291 293
264 263 263 261 260 259 259 258 258 258 258 258 255 255 255 255 254 255 256 256 255 255 254 254 254 254 254 255 256 257 258 259 259 259 259 258 259 259 259 260 260 261 261 261 262 263 263 265 267 267 269 270 270 270 273 273 276 278 279 280 281 281 281 278 276 275 276 277 278 280 282 284 284 285 286 287 288 289 289 288 289 290 291 292 293
263 263 262 260 260 259 258 258 258 257 257 257 255 254 254 253 254 255 256 255 254 254 253 252 253 253 254 255 256 257 258 258 258 258 258 258 258 258 259 260 261 261 261 261 262 263 264 265 265 267 268 268 269 269 272 274 274 277 278 279 280 281 283 280 279 278 278 279 279 280 282 284 285 285 286 287 288 288 287 289 290 291 291 292 292
261 261 261 260 259 257 257 257 257 256 257 255 255 253 253 253 255 255 254 254 253 252 251 251 252 253 254 255 256 257 257 257 258 258 257 257 257 258 258 260 261 261 261 261 262 263 264 264 265 266 267 267 268 269 269 272 274 276 277 278 279 280 281 283 281 280 280 280 282 283 283 284 285 285 286 287 288 288 289 289 289 290 290 291 292
261 260 259 258 257 256 255 256 256 256 256 255 254 254 251 253 254 254 254 253 251 250 250 251 252 252 253 255 256 257 257 257 257 258 257 257 257 258 258 259 260 261 261 261 262 264 264 264 265 266 266 266 267 268 269 270 272 274 275 277 278 279 280 281 283 283 283 283 283 283 284 284 285 285 286 286 286 286 288 288 289 289 290 291 292
259 260 258 256 255 255 255 255 255 256 255 255 253 254 254 254 253 254 253 251 249 249 250 251 251 252 254 255 255 256 257 257 257 257 257 257 257 258 258 259 260 261 261 262 264 263 263 264 265 265 265 265 266 267 268 269 271 272 273 274 275 276 279 281 282 283 284 283 283 284 284 285 285 286 287 287 286 287 287 288 288 289 290 292 293
260 259 257 256 256 256 255 254 255 255 255 254 253 253 252 252 252 252 250 248 248 250 250 250 251 253 254 255 255 257 256 255 256 256 256 256 257 258 259 259 260 261 262 263 264 264 263 264 265 265 264 265 265 266 268 269 271 272 273 274 275 276 277 278 280 283 284 284 283 284 285 284 285 285 286 285 285 286 286 286 287 289 290 291 292
259 257 256 256 256 255 255 255 255 255 254 253 252 252 251 252 253 250 249 247 248 250 250 249 252 253 253 256 255 255 255 255 255 256 256 257 256 258 259 261 263 264 265 265 265 265 265 266 266 265 264 264 265 266 268 274 272 275 273 273 274 275 277 278 281 284 285 284 284 283 283 284 284 284 284 285 285 285 285 286 287 288 291 291 292
258 257 256 256 255 255 254 254 255 254 253 252 251 252 251 253 251 250 249 247 247 249 248 250 251 252 253 254 254 254 255 255 255 255 255 256 260 264 263 261 262 267 270 271 270 266 267 267 267 267 266 265 265 267 273 275 275 275 276 277 277 279 281 283 283 284 285 284 283 283 283 284 284 284 284 284 285 285 285 286 287 289 290 291 292
257 255 255 255 255 254 254 254 254 253 252 251 250 251 250 251 252 251 250 248 247 247 249 250 251 251 254 255 254 254 254 254 255 255 255 255 255 257 262 265 267 267 268 270 270 270 271 272 269 266 268 271 271 272 273 274 274 275 275 276 276 277 278 282 286 284 284 284 284 283 284 284 285 285 285 285 285 285 286 286 287 289 291 291 291
Wind_Speed
8 9 9 8 8 6 5 5 3 2 2 1 1 2 3 3 1 1 2 2 1 2 2 3 5 6 4 6 6 6 6 6 5 6 6 6 7 7 8 8 9 9 10 11 11 12 11 11 10 9 10 11 11 14 13 15 15 13 14 12 14 14 13 9 7 6 9 13 10 12 14 13 15 17 19 18 16 14 13 14 14 14 14 15 15
6 7 7 6 5 5 4 4 2 2 1 1 3 3 4 3 1 2 2 2 1 1 2 3 3 2 2 3 2 4 6 6 6 6 6 5 5 6 7 8 8 9 10 10 11 10 11 10 9 9 10 10 12 14 14 14 15 13 12 13 10 12 12 11 7 4 7 8 11 14 15 14 12 15 18 20 18 16 14 15 15 15 16 15 14
8 9 8 8 7 6 5 4 3 3 3 3 3 4 3 2 2 2 2 1 2 2 3 3 1 2 2 3 4 5 2 3 4 5 4 5 3 4 4 5 7 8 9 11 11 11 11 10 9 9 9 10 13 12 13 15 11 14 13 13 13 11 12 11 8 7 9 5 6 10 11 12 13 10 10 17 19 17 15 16 16 17 18 15 13
14 13 11 8 7 7 4 3 4 2 3 3 3 3 3 2 2 2 2 1 2 2 1 1 1 2 2 3 4 3 6 5 4 5 5 3 5 4 4 6 8 8 9 10 10 11 12 12 11 10 9 9 10 13 14 13 13 12 12 13 12 14 12 12 8 7 7 3 6 3 7 7 12 11 12 12 16 20 18 17 15 16 16 16 13
13 12 9 7 6 7 6 5 2 2 4 4 4 3 3 3 3 2 2 2 2 3 2 2 3 3 3 4 3 4 3 4 4 4 4 4 7 6 7 6 7 8 8 8 8 10 10 10 11 11 11 10 9 12 14 14 16 15 14 13 13 14 15 12 10 7 8 7 6 5 6 6 9 11 12 16 9 12 18 18 16 17 16 15 14
14 14 11 9 9 6 5 3 3 5 4 5 5 4 3 4 3 2 2 2 3 3 1 2 3 4 6 8 10 9 10 9 10 12 13 11 10 9 9 9 9 8 8 9 9 9 9 10 10 11 12 9 9 11 11 15 15 14 12 12 14 16 15 14 14 7 8 8 10 10 8 9 9 9 9 10 12 8 10 14 17 18 15 15 12
6 7 9 8 7 7 5 5 6 5 6 4 3 4 4 4 4 3 2 3 3 2 2 2 4 4 4 4 4 6 8 7 4 6 8 9 8 9 9 7 8 10 10 9 10 10 10 9 9 10 11 9 12 11 12 14 12 14 14 12 13 14 16 17 16 11 6 7 8 9 10 10 10 8 10 9 13 11 5 9 14 17 16 16 15
10 10 10 9 9 9 8 8 6 7 5 2 4 4 4 4 4 3 2 2 3 2 3 2 3 4 4 4 5 6 7 10 9 8 7 8 10 11 10 8 7 7 9 10 9 10 11 10 9 10 10 13 12 11 11 12 12 15 14 13 15 12 15 18 15 12 10 8 8 9 9 9 9 10 12 11 12 14 19 14 10 14 15 16 16
11 11 12 10 9 8 7 6 6 5 4 4 4 4 3 3 3 3 3 3 4 4 3 4 3 4 4 5 7 6 6 8 8 8 8 8 10 10 10 10 10 9 8 9 9 10 9 11 13 12 11 11 9 10 12 13 15 17 16 15 13 12 13 15 17 15 10 10 6 7 7 8 8 10 10 8 11 11 14 18 13 6 9 12 13
9 11 11 9 8 7 8 5 3 5 4 3 3 2 3 2 3 4 4 3 4 4 4 4 4 4 6 5 8 9 7 8 7 9 9 9 10 11 9 10 9 10 9 8 9 10 11 10 11 12 11 12 10 12 14 15 15 16 18 15 13 15 12 14 17 15 11 10 8 7 6 6 7 8 9 9 11 12 14 15 14 13 10 10 12
10 10 9 9 7 6 4 6 4 3 3 2 3 3 3 2 3 4 5 4 4 5 4 4 4 4 5 6 7 9 9 9 10 10 9 10 11 12 11 10 10 11 10 9 9 10 10 11 11 11 12 11 12 12 12 13 16 16 13 15 15 16 11 13 16 16 12 10 9 8 9 10 10 10 10 9 8 8 9 13 17 16 17 14 11
10 10 9 9 5 3 3 4 4 4 1 3 4 3 3 3 2 4 5 4 4 4 3 4 4 5 5 5 7 7 8 8 10 12 10 11 11 12 11 11 12 11 10 9 12 8 9 9 9 11 11 10 12 12 12 14 16 15 15 16 15 13 12 11 14 16 16 11 10 8 9 9 9 10 10 9 8 10 9 14 14 12 11 8 6
11 10 9 8 8 7 5 6 3 4 4 4 4 3 3 3 3 4 6 5 5 4 4 4 4 5 6 6 6 6 8 8 9 10 10 10 10 12 13 12 12 12 11 12 11 10 10 10 10 9 9 11 12 12 14 13 16 16 16 19 16 14 12 13 13 17 17 13 9 9 9 9 10 9 9 9 8 8 8 9 13 17 15 8 6
12 10 9 9 8 6 6 6 5 5 5 5 4 3 3 3 3 4 7 5 4 3 4 4 5 5 5 6 6 6 7 8 8 9 10 9 9 10 11 11 13 12 12 14 11 13 11 9 13 11 12 12 13 14 13 13 13 15 17 17 15 15 12 14 14 16 17 17 10 8 9 9 10 9 9 9 10 9 10 11 10 13 18 12 3
10 11 9 9 8 7 7 6 5 5 5 5 4 4 3 3 3 4 6 5 4 4 4 4 5 5 5 6 6 5 8 8 8 8 9 10 9 11 11 10 11 12 14 11 14 14 14 12 11 12 13 11 13 13 13 13 14 13 15 17 13 13 11 13 12 16 17 16 12 10 9 9 9 9 9 10 9 10 11 11 8 13 15 10 8
10 10 9 8 7 6 6 5 6 5 6 4 4 3 3 3 3 4 5 6 5 4 4 4 5 5 5 6 7 7 7 8 8 8 9 8 10 12 12 13 11 12 13 14 15 13 14 15 12 13 13 12 12 13 13 12 13 13 14 12 15 10 13 16 14 12 17 18 14 10 9 10 9 9 9 10 10 10 11 10 10 12 15 10 9
11 11 9 9 6 5 6 6 6 5 4 5 4 3 3 3 3 4 5 5 5 4 4 4 5 5 6 6 7 7 7 8 9 11 12 10 10 10 11 13 12 12 11 13 13 13 14 12 14 13 12 12 13 12 13 14 13 15 13 12 12 15 14 13 13 11 14 16 13 11 11 10 9 9 10 10 10 11 11 11 12 13 16 14 10
10 7 8 8 8 8 7 6 6 6 5 4 4 3 2 2 3 4 5 6 5 5 5 5 6 7 6 7 6 7 9 9 9 11 10 11 11 9 11 11 13 12 11 13 13 15 13 13 13 13 13 12 13 12 12 13 13 11 13 15 14 15 13 11 11 14 13 14 13 11 10 10 9 10 11 11 11 11 11 12 13 13 12 15 12
11 11 9 8 7 7 7 7 6 5 4 4 3 2 1 2 3 4 6 4 4 4 4 5 5 6 6 7 8 8 8 9 9 10 10 12 12 13 12 13 14 12 12 12 13 14 13 14 13 12 13 12 11 13 11 13 13 14 14 12 13 11 12 13 11 11 13 14 14 14 12 11 10 11 11 11 12 12 13 12 13 13 13 14 18
12 10 9 9 8 7 8 7 5 5 4 3 3 1 2 3 4 4 4 4 4 5 5 6 6 7 8 8 8 7 8 8 10 9 11 11 12 13 13 14 12 11 13 13 15 14 15 15 11 13 15 12 13 11 13 13 12 13 10 11 9 13 15 13 13 11 10 13 14 14 13 11 9 9 10 10 10 11 11 12 12 12 13 14 17
11 10 9 9 7 6 5 4 3 2 1 1 1 2 3 3 3 3 6 7 6 6 6 6 7 8 8 10 10 9 10 9 10 9 12 11 12 12 11 14 12 14 11 15 15 14 14 14 14 14 13 14 13 12 12 10 12 12 12 13 15 16 17 14 12 15 13 14 15 15 12 11 10 11 9 9 10 12 12 11 11 11 13 14 15
10 10 8 8 6 5 4 2 2 2 1 1 1 1 4 3 3 4 4 4 6 7 6 8 7 8 9 10 10 9 8 9 10 12 11 11 13 11 12 12 15 14 11 14 14 14 14 13 15 18 13 13 12 14 12 12 13 14 15 14 15 16 18 17 14 14 14 12 14 13 12 11 10 12 10 11 10 11 11 11 12 12 13 13 16
11 10 8 7 6 6 5 5 5 4 3 2 3 3 2 3 3 3 4 5 5 6 6 7 8 8 10 10 10 10 10 11 11 11 11 12 11 12 12 12 14 12 12 12 17 15 15 19 17 20 18 16 15 15 13 15 14 16 17 16 15 16 16 14 13 14 13 13 14 14 12 10 9 10 10 10 11 12 11 12 14 12 13 14 16
8 7 7 7 6 4 3 3 3 3 3 4 3 1 2 2 3 3 4 6 6 6 7 7 8 9 9 11 11 10 11 11 11 10 14 14 12 12 10 13 13 15 16 19 14 19 17 17 21 19 19 17 17 16 16 16 17 17 17 17 16 16 15 15 15 13 12 13 14 14 11 9 9 10 10 9 10 10 11 12 14 13 13 15 16
9 9 9 6 5 5 5 4 5 4 3 1 1 1 2 3 3 3 4 4 6 6 7 7 8 10 10 10 12 11 12 12 12 11 13 13 13 13 13 14 17 16 18 16 17 17 17 18 17 18 19 18 17 17 18 18 17 15 16 17 17 15 15 16 16 14 14 13 14 15 13 10 9 10 9 9 9 12 11 12 13 12 12 13 16
11 9 9 9 8 6 4 5 4 3 1 0 1 1 2 3 3 3 4 5 6 6 7 8 9 10 11 11 11 11 12 13 14 14 14 14 15 17 15 17 14 19 18 18 17 17 16 19 18 19 19 19 19 18 18 18 17 16 17 18 17 17 17 17 17 17 15 13 14 14 13 12 11 11 10 10 10 12 11 12 13 12 13 14 16
14 12 8 6 5 7 7 5 3 2 1 0 1 2 3 3 3 3 4 5 6 7 8 8 8 8 9 10 11 11 12 13 12 13 14 17 17 14 17 17 17 17 18 18 17 18 17 17 19 19 19 19 19 18 18 18 17 18 18 18 18 17 17 16 16 17 15 14 15 15 15 14 12 10 10 9 9 11 10 11 11 12 14 16 15
8 9 10 10 8 6 5 4 3 2 1 0 1 2 3 3 4 4 4 5 5 7 7 8 8 9 9 10 10 12 12 12 13 15 16 16 15 17 16 17 16 18 18 18 18 19 19 17 18 18 19 18 18 18 18 18 17 17 17 17 17 18 17 17 16 17 16 15 15 15 14 12 12 12 10 9 9 9 8 11 11 11 14 17 15
12 12 10 9 8 6 5 4 3 2 1 2 2 3 2 3 3 4 4 5 5 6 8 8 8 9 10 10 11 11 11 13 15 15 16 16 16 16 17 17 17 17 16 17 18 19 20 20 19 19 19 18 17 17 15 14 15 17 17 17 18 18 17 17 17 17 17 16 15 15 15 13 14 14 15 13 12 11 9 10 12 12 15 16 15
15 13 10 8 7 6 5 5 3 2 2 3 3 2 2 3 4 4 4 4 6 7 8 8 8 9 9 10 11 11 13 14 15 16 15 16 15 16 16 16 16 15 16 16 16 16 17 20 20 20 18 16 16 14 18 26 24 17 16 15 15 16 17 16 16 17 16 15 15 13 13 18 17 17 16 16 17 17 17 13 12 11 13 14 15
12 10 10 8 7 6 5 4 4 3 3 3 3 2 3 4 4 4 4 5 6 7 7 8 9 9 10 10 11 11 11 13 14 14 13 14 15 13 14 14 15 15 16 15 15 17 20 18 18 18 18 16 15 15 26 26 27 29 21 18 17 17 17 17 16 17 16 14 12 13 12 14 17 16 14 16 17 19 18 17 20 23 20 17 14
14 11 9 8 8 7 6 5 4 4 3 3 1 2 3 3 4 4 5 6 6 7 8 8 9 10 10 10 10 11 13 12 12 12 12 14 12 15 14 14 14 15 15 14 16 18 17 17 16 17 17 17 17 22 28 28 28 29 26 19 16 16 16 16 16 18 16 14 13 12 10 9 11 12 11 10 12 16 18 19 21 26 27 27 26
13 12 11 10 9 8 7 5 4 4 4 2 1 2 3 4 4 5 5 6 6 7 8 9 9 9 9 10 10 10 12 11 13 12 13 12 12 15 15 16 15 15 14 16 16 14 17 19 17 17 17 18 18 23 26 28 28 28 28 24 17 17 17 17 16 17 17 15 10 10 10 10 10 16 13 11 10 11 13 17 19 26 27 26 28
11 11 11 9 7 6 6 6 5 4 3 2 1 1 3 3 3 5 5 6 6 7 7 9 9 9 10 11 11 11 12 12 12 12 13 13 14 14 13 13 14 15 15 15 15 16 16 16 16 16 17 17 18 23 28 28 28 28 28 24 17 17 17 18 18 17 16 16 14 11 11 11 11 11 10 9 9 9 10 11 13 14 15 18 27
14 11 9 10 10 8 7 6 5 4 2 2 2 2 3 2 4 5 4 6 6 7 7 8 10 10 11 11 11 12 12 14 13 13 13 14 14 14 17 15 15 16 15 16 16 16 16 15 15 15 16 17 16 26 27 29 28 28 28 24 17 16 16 17 17 17 18 18 15 13 13 12 11 11 9 11 9 9 9 10 12 14 16 14 18
13 14 11 13 11 10 9 7 5 4 3 2 2 2 2 3 3 4 4 5 5 5 7 8 9 10 11 11 12 13 14 13 15 15 14 15 15 16 15 15 15 16 15 14 14 14 15 17 16 15 15 16 16 27 27 28 28 28 28 17 14 15 16 17 17 17 17 15 13 13 12 12 13 12 14 18 14 8 8 12 13 13 15 13 16
10 12 13 9 8 8 7 6 5 4 4 2 1 1 2 3 3 3 3 4 4 5 7 9 9 11 11 11 11 13 14 15 15 16 17 17 17 17 17 15 17 16 16 17 16 16 16 17 19 17 16 16 16 24 29 28 27 28 22 13 13 13 14 16 16 16 16 16 13 12 10 11 12 13 16 18 17 13 9 11 12 13 14 12 14
14 12 11 10 9 7 6 7 6 5 3 1 0 2 3 3 3 4 3 4 4 6 8 8 9 10 11 12 11 12 14 15 15 16 17 16 15 14 15 14 15 17 17 17 17 16 16 16 18 18 16 17 16 21 30 29 27 26 22 14 11 12 14 14 15 16 14 14 13 21 18 14 14 14 18 20 18 13 10 11 11 11 14 12 13
14 14 11 9 8 8 8 6 6 5 2 2 1 3 4 3 3 3 3 4 5 7 7 9 9 11 11 11 11 12 12 14 15 15 15 16 16 15 14 14 13 14 15 14 15 16 16 16 16 17 24 22 16 18 28 27 27 25 19 12 9 8 12 14 13 14 14 13 13 14 21 18 15 16 22 20 20 15 10 11 10 10 13 12 13
11 9 9 10 10 9 7 6 5 4 3 3 3 3 2 2 2 2 3 4 5 6 8 9 10 10 10 11 10 12 12 13 15 16 14 14 14 14 14 14 14 13 13 14 15 15 18 16 15 15 14 15 16 15 18 28 28 27 25 13 9 8 10 14 14 13 12 11 11 10 13 20 23 25 24 24 21 20 12 9 8 9 11 12 11
13 11 11 9 8 7 7 7 5 5 2 3 3 3 3 2 2 3 4 5 6 7 8 8 9 10 10 11 10 10 13 14 12 13 13 13 12 13 15 14 14 13 13 15 17 16 17 17 15 14 15 15 13 15 19 30 28 27 26 21 10 10 11 12 13 12 11 11 10 9 9 16 23 25 25 25 23 21 18 11 10 10 10 10 10
9 11 10 9 8 7 7 6 5 4 3 3 3 3 3 2 3 3 4 5 6 7 7 7 9 10 10 11 11 11 11 11 12 12 14 14 12 12 12 13 12 13 16 16 17 16 16 16 13 15 15 14 15 22 18 24 27 28 26 29 13 12 13 11 13 12 11 12 12 11 10 14 21 23 23 23 23 20 19 11 11 12 16 22 12
13 10 7 10 9 8 7 7 5 3 4 3 4 4 3 2 2 3 4 5 6 6 7 8 8 9 10 11 11 12 12 11 11 12 13 14 13 13 14 12 12 13 14 16 17 18 16 13 14 14 12 14 16 16 24 21 26 28 28 29 30 19 25 15 13 13 12 12 12 12 11 16 19 20 20 21 20 20 17 11 15 15 17 21 14
8 10 11 8 8 8 7 7 5 3 3 4 4 4 3 2 2 4 4 4 5 6 7 7 8 8 10 10 11 11 10 10 12 12 11 12 13 13 13 12 12 12 13 16 15 14 13 15 16 14 14 14 14 15 20 25 24 29 29 29 28 28 20 15 13 12 12 12 11 11 11 18 19 19 20 19 18 17 11 14 14 14 18 18 10
11 11 8 7 10 10 8 6 6 4 4 3 3 5 2 2 2 3 4 5 6 7 7 7 8 8 8 9 10 10 10 9 11 11 12 12 13 13 13 12 12 13 13 12 13 12 13 15 15 15 17 16 16 16 15 19 28 28 29 27 27 27 25 19 16 13 13 12 15 19 21 20 19 19 20 19 16 16 17 15 15 18 18 9 9
9 8 7 7 7 8 9 8 5 4 3 3 2 3 3 1 2 2 3 4 5 6 6 7 8 7 9 8 9 9 10 10 10 10 11 10 11 12 12 13 12 13 14 11 10 12 14 15 14 15 16 17 17 16 16 17 18 21 22 26 27 25 21 20 17 16 21 24 23 23 23 22 19 16 12 9 7 6 9 13 15 16 11 8 10
13 9 10 9 8 9 8 8 6 3 4 2 3 2 2 1 2 3 3 3 4 5 6 6 8 8 7 7 8 8 10 10 9 8 8 11 10 10 11 11 12 12 11 10 13 14 13 15 13 15 17 17 16 15 16 15 11 13 15 16 15 15 19 18 12 10 17 15 17 18 13 14 11 14 14 11 8 7 7 8 7 8 8 9 11
6 9 9 7 8 10 9 7 7 5 3 2 2 2 1 1 1 2 3 3 4 4 5 6 8 7 7 7 7 10 10 9 10 11 10 10 11 11 11 12 11 10 9 10 7 11 12 13 12 15 16 16 14 14 13 14 17 16 15 14 12 14 12 11 10 9 10 12 12 12 15 12 10 9 8 7 6 6 7 6 7 7 8 10 13
11 10 8 9 9 10 8 8 6 4 4 3 2 1 1 2 2 2 3 3 4 4 5 5 6 6 7 6 7 7 7 8 9 9 9 8 10 11 12 12 12 11 13 15 11 9 9 12 12 14 14 15 15 15 16 26 23 27 21 18 16 13 11 11 13 15 8 10 9 9 9 10 9 9 8 7 6 6 6 7 8 8 8 10 10
4 6 7 7 7 10 10 8 6 5 3 3 2 1 1 2 1 2 2 3 4 5 5 5 5 5 6 6 7 7 7 7 8 8 10 11 11 17 14 12 12 21 28 28 25 17 18 15 13 12 14 17 16 18 33 35 32 31 31 29 27 27 29 15 17 19 10 8 9 10 9 9 8 8 8 7 7 7 6 7 7 9 9 10 11
10 11 9 8 8 7 8 7 6 4 3 3 2 1 0 1 1 2 2 3 3 3 4 5 5 5 6 6 6 7 8 7 7 8 8 9 12 12 14 20 22 24 25 26 28 30 31 30 22 16 18 30 31 33 34 34 33 32 32 31 29 31 32 26 11 11 8 9 8 10 9 7 8 7 7 8 7 7 7 7 7 7 9 11 12
Wind_Direction
199 193 188 191 200 207 196 158 187 223 248 237 257 263 238 222 232 285 262 251 268 308 328 4 3 359 13 15 350 334 331 334 335 342 341 337 333 334 332 333 330 331 329 327 321 316 309 305 305 315 316 311 307 301 302 301 298 293 291 284 280 280 281 272 261 267 292 295 289 285 293 287 283 275 253 239 231 227 224 221 219 221 220 219 219
194 198 203 199 213 220 213 155 172 136 231 216 234 240 239 241 219 256 257 262 290 302 4 29 35 27 338 300 302 307 321 331 333 330 321 319 320 324 325 324 325 325 321 319 312 307 308 308 308 306 313 308 301 299 297 293 293 291 289 285 270 270 274 275 261 270 277 281 311 314 304 296 277 274 261 239 230 224 221 219 215 217 218 217 216
192 198 193 196 206 216 198 165 191 192 225 233 242 251 255 252 249 246 248 276 300 334 30 15 354 336 342 303 322 313 254 256 278 279 279 282 284 288 294 301 311 311 313 317 318 316 314 310 307 309 306 308 305 301 299 296 296 293 289 284 286 272 271 272 258 210 265 273 278 296 294 309 311 296 270 248 229 223 218 218 215 214 217 213 211
192 191 192 197 197 210 180 173 205 193 251 256 258 251 257 264 272 267 278 300 324 342 18 340 300 301 284 282 291 268 293 295 270 273 266 268 289 286 286 304 309 308 313 315 313 310 310 309 307 306 304 306 307 306 303 299 295 291 288 283 281 282 274 272 239 217 211 247 290 219 303 321 303 291 287 258 235 224 217 217 214 214 213 212 208
187 187 190 190 199 208 180 189 151 223 232 235 244 238 238 259 257 245 264 304 316 329 339 332 329 324 322 313 284 300 272 270 281 255 236 285 304 310 311 310 304 302 300 295 295 299 301 302 306 305 307 307 304 300 300 297 294 290 283 282 279 276 277 270 262 211 215 193 212 289 294 258 246 278 349 309 273 244 221 212 208 208 208 206 205
188 186 185 187 191 192 178 209 213 228 235 237 217 232 237 261 258 262 281 304 318 311 312 353 348 348 347 349 344 341 332 340 337 331 328 328 322 311 307 310 306 301 298 299 297 296 295 298 300 303 303 302 299 295 290 292 289 290 294 296 287 278 274 272 270 231 210 206 206 212 210 257 287 301 321 293 309 290 287 224 205 204 202 200 205
200 182 181 178 197 163 199 209 215 207 233 230 242 239 247 248 248 241 254 284 297 305 319 348 343 348 342 324 306 306 307 296 274 289 299 304 307 305 302 296 299 302 303 301 300 300 299 296 294 296 297 299 299 293 292 291 293 290 287 281 282 285 275 267 260 254 224 224 210 219 226 234 244 262 268 290 299 303 282 273 221 199 193 191 195
179 181 178 184 178 177 194 213 199 205 216 216 244 257 248 260 259 264 262 290 301 313 320 316 326 327 323 312 307 305 303 300 309 303 300 301 306 306 305 300 293 292 295 297 296 297 299 298 296 295 295 294 295 290 290 293 290 286 280 279 281 278 279 269 260 250 231 239 196 216 222 227 231 241 251 255 274 285 298 291 276 212 191 193 187
174 175 179 183 177 192 200 208 215 215 227 223 225 238 259 264 269 279 296 305 307 316 300 303 317 311 306 304 305 293 288 297 304 304 305 307 300 302 302 302 301 296 287 289 291 289 293 297 299 296 292 288 288 289 287 287 286 285 282 278 277 284 283 279 263 250 231 233 195 231 228 234 235 234 238 229 246 269 271 277 270 258 211 193 189
185 177 176 180 183 192 202 202 202 214 220 227 250 274 275 284 277 289 298 305 306 302 292 308 314 312 307 300 296 301 303 300 304 307 310 313 303 300 298 298 301 301 297 286 286 289 291 290 289 289 289 290 290 288 288 287 284 280 273 269 276 278 279 281 274 257 236 235 206 216 223 237 241 248 236 232 240 226 254 271 266 223 206 204 183
183 180 178 180 187 184 159 188 214 255 249 249 272 272 284 280 266 287 277 302 297 283 297 299 300 287 285 286 288 295 303 307 311 309 308 309 305 303 304 301 299 298 298 291 283 286 285 285 285 284 285 286 286 286 285 286 282 279 288 292 281 276 277 284 285 271 249 238 216 210 224 230 238 240 249 240 243 256 265 265 254 234 211 185 198
176 175 179 182 186 185 181 212 225 236 283 273 264 274 276 262 260 269 289 294 282 277 292 285 278 277 271 278 284 289 300 306 307 304 305 303 301 301 303 303 299 296 291 290 290 282 282 280 278 281 280 280 281 285 283 283 287 295 291 285 282 281 284 287 287 284 262 243 229 216 225 230 232 239 245 243 238 246 243 264 280 273 250 218 183
176 177 172 182 182 189 191 219 221 236 224 238 249 253 251 249 239 258 284 283 273 283 288 280 285 286 290 288 286 293 299 298 298 296 298 298 301 300 303 299 299 297 294 294 289 291 290 289 284 279 280 279 281 281 282 281 286 286 284 279 276 283 286 285 287 286 279 251 231 223 224 224 234 236 244 246 244 244 232 265 266 278 260 212 203
178 174 175 179 187 192 193 194 201 214 229 234 244 240 236 232 251 265 275 279 284 292 281 286 283 283 282 281 284 292 293 294 293 295 296 294 293 292 294 294 295 291 295 293 296 298 292 284 285 280 279 279 281 281 279 277 278 279 280 281 284 284 284 281 280 282 279 261 240 229 223 225 234 231 236 244 247 242 244 241 267 277 263 218 181
177 176 177 178 189 189 189 196 200 210 222 233 230 232 219 236 263 275 281 291 301 291 292 290 288 287 289 285 286 287 291 292 290 291 295 297 294 290 289 289 287 291 292 292 296 295 293 288 282 280 280 278 279 279 278 278 278 280 278 280 278 274 276 277 274 280 279 264 242 234 235 229 235 232 228 238 241 239 239 241 236 267 267 216 180
179 178 181 189 187 188 188 192 205 208 220 225 224 221 213 239 260 265 274 291 288 288 288 288 291 291 290 292 290 290 292 294 294 292 289 287 290 292 290 289 286 288 290 293 291 290 289 289 283 277 276 274 274 274 276 277 276 272 271 267 268 272 275 273 274 278 280 269 246 238 238 234 236 236 232 237 236 240 239 241 230 241 264 246 182
181 179 179 185 190 191 191 193 202 212 219 219 220 203 208 250 266 281 288 279 277 289 297 300 298 297 293 290 294 297 296 296 296 296 295 291 287 288 288 287 289 288 289 291 290 288 284 281 282 280 276 273 272 272 272 272 271 267 265 273 276 279 271 268 274 276 278 276 253 238 239 239 236 238 238 234 238 239 239 238 228 233 247 256 207
179 175 181 184 185 189 196 202 201 204 206 213 222 216 215 230 254 275 276 281 298 317 319 315 308 301 297 296 297 298 301 299 296 294 295 293 290 287 287 288 287 289 288 289 289 287 285 281 279 278 276 273 269 270 268 268 273 276 277 273 269 267 265 268 267 271 273 273 260 243 240 243 233 239 238 236 235 238 239 235 235 232 236 256 244
183 185 187 190 187 191 190 199 208 205 205 203 211 233 265 275 264 252 267 286 305 313 304 298 291 297 299 302 302 303 299 295 294 293 293 292 292 292 287 287 287 286 286 287 287 286 282 282 277 275 275 272 269 270 270 270 269 269 266 265 261 259 266 267 264 261 267 267 259 247 241 243 236 240 240 239 238 239 237 237 239 234 237 245 255
185 184 186 189 190 193 192 197 204 205 199 193 200 250 281 269 257 269 292 320 321 309 302 299 299 299 303 304 302 298 296 294 294 295 294 290 289 289 287 287 284 286 284 284 283 281 281 279 274 274 276 272 271 267 266 268 267 268 272 274 276 274 269 265 266 266 272 274 269 251 239 240 237 240 244 245 247 243 241 241 238 238 240 242 253
185 182 183 186 190 194 204 199 201 194 176 167 210 242 265 257 278 328 329 322 316 306 307 306 308 306 307 306 305 306 302 298 294 291 290 286 286 286 284 285 286 283 285 285 281 278 279 277 279 275 273 273 272 269 266 265 268 269 267 269 272 272 273 270 267 271 269 270 268 255 240 238 238 243 242 242 243 244 245 243 241 241 240 246 248
180 180 179 181 184 192 193 162 149 152 193 214 263 260 255 278 341 333 315 302 303 310 311 310 310 305 304 302 302 302 298 301 299 297 292 291 290 289 289 289 286 284 281 283 281 283 281 281 284 284 277 272 271 271 266 265 266 266 266 266 265 263 261 261 261 265 269 271 272 254 236 235 233 244 242 243 242 247 243 244 243 236 240 244 245
180 174 178 175 178 183 181 170 170 179 195 218 239 236 283 344 338 309 302 299 304 303 308 306 303 304 303 303 304 304 306 304 300 297 293 293 293 292 292 289 289 286 285 282 292 290 288 290 289 289 287 285 281 277 274 271 266 266 266 264 262 262 258 259 258 257 261 271 276 265 244 234 232 241 244 248 251 251 250 249 248 242 242 243 248
182 171 174 177 174 155 144 157 170 194 198 221 231 339 355 328 307 299 297 304 308 309 308 305 301 301 304 307 308 309 307 305 304 302 300 299 296 294 293 291 292 299 299 298 295 295 294 294 293 291 287 286 285 285 283 277 272 266 265 263 261 262 264 264 261 258 261 268 271 269 243 230 231 241 245 248 248 248 249 251 248 245 243 247 244
179 177 177 171 162 164 184 176 179 195 206 207 358 358 321 296 302 296 294 303 307 306 305 302 303 308 312 312 311 312 309 308 305 304 304 302 303 303 304 303 305 303 303 301 298 298 294 294 293 293 290 288 285 283 280 277 275 272 270 271 270 271 271 272 271 267 261 257 260 267 270 249 236 240 245 248 247 248 248 249 249 248 246 245 239
178 174 175 181 185 179 166 177 182 185 186 101 350 293 290 283 282 295 301 308 304 301 300 309 314 313 310 307 305 309 310 310 311 309 308 307 308 309 310 309 307 304 305 300 298 297 296 293 292 290 289 286 284 281 276 273 271 271 272 272 270 267 263 260 260 260 255 250 256 259 260 252 241 241 245 246 252 255 256 255 252 251 249 244 230
180 177 177 172 164 180 181 176 172 170 174 160 236 279 279 281 290 304 302 301 305 306 312 315 314 310 309 310 312 314 313 310 309 308 310 312 310 310 309 307 307 302 300 299 297 295 292 290 289 288 286 284 281 278 275 272 270 268 266 266 267 265 262 259 256 253 252 252 252 251 250 242 237 239 240 241 251 263 265 267 262 262 256 243 217
175 179 182 182 181 172 168 168 167 181 156 200 265 264 267 280 298 299 301 303 304 314 317 320 321 317 316 315 316 315 314 311 311 312 310 310 310 309 308 305 304 302 299 296 296 295 293 289 288 286 284 283 279 276 273 269 266 265 264 264 265 266 263 260 259 257 256 253 252 257 264 264 252 242 234 233 240 254 271 280 280 279 267 235 205
185 189 181 178 175 169 165 164 179 157 190 258 263 263 272 297 277 274 289 296 313 319 322 323 323 319 318 317 316 317 314 313 313 312 310 310 309 307 304 303 301 297 295 291 291 291 290 290 288 285 283 280 277 273 271 267 264 261 260 259 262 261 259 258 258 256 254 249 246 247 247 244 240 239 240 240 244 251 259 272 273 278 276 231 195
191 185 183 177 166 157 161 169 160 172 222 244 259 263 282 276 273 286 295 311 334 327 326 324 320 318 317 317 315 313 314 314 313 311 310 309 306 304 301 298 295 292 290 289 287 283 286 291 290 289 285 281 276 273 269 270 266 262 260 260 258 259 259 256 256 256 252 246 243 243 251 260 267 262 252 249 255 259 260 257 271 280 285 242 193
186 178 179 168 158 156 157 158 175 190 212 236 244 265 270 263 279 295 313 334 335 329 324 321 317 317 318 316 315 313 314 312 311 307 305 304 302 300 297 293 290 290 289 286 284 290 294 290 287 284 283 279 274 270 272 271 270 267 266 266 266 265 264 267 269 264 257 252 246 246 247 249 253 254 252 252 258 262 268 275 276 275 268 263 203
186 180 166 162 161 163 164 175 184 193 210 219 248 267 256 270 287 314 336 338 338 329 323 321 319 319 319 317 315 314 313 310 308 303 303 302 298 299 296 295 292 293 292 291 292 289 284 287 286 282 278 277 275 275 275 274 272 269 267 265 263 262 261 262 260 262 262 253 244 241 241 246 248 251 254 256 257 263 273 279 280 283 280 273 228
178 171 169 168 168 165 166 169 173 186 194 192 203 253 260 284 308 336 345 343 337 329 324 321 319 318 316 318 317 315 311 307 306 304 303 304 302 299 299 298 295 294 293 294 290 285 292 288 281 279 275 276 275 274 276 274 273 271 269 266 264 262 262 261 259 259 263 263 250 244 249 243 245 246 247 251 257 265 270 277 283 287 280 270 226
171 165 166 159 143 147 153 164 170 174 161 136 210 217 272 301 330 350 349 339 329 325 325 320 320 321 324 322 320 316 310 307 307 307 306 305 303 299 296 296 298 298 296 296 295 287 286 288 283 279 276 275 276 273 273 272 272 271 270 268 262 260 259 260 259 257 257 256 254 250 248 248 245 244 241 245 243 257 271 283 290 290 287 260 217
168 161 155 153 151 151 147 158 161 158 137 159 228 244 274 332 10 358 349 336 334 327 326 325 326 326 325 324 319 317 313 312 311 310 308 306 303 304 307 308 307 308 305 306 303 299 289 273 268 271 276 273 270 274 277 276 274 273 273 269 262 259 259 259 257 254 253 250 242 240 243 249 251 247 241 238 244 252 269 280 284 286 287 255 209
172 159 153 146 153 157 165 162 141 136 145 174 220 281 345 18 4 359 347 338 333 329 326 331 329 326 325 320 320 316 316 315 315 315 313 311 310 310 310 313 313 314 310 305 305 298 293 292 281 276 273 273 272 279 283 283 278 277 276 271 263 259 258 259 259 258 254 251 240 231 231 241 248 250 246 242 242 249 263 274 278 284 287 250 210
145 142 132 117 125 138 141 138 140 143 157 196 237 348 29 26 18 5 356 340 339 336 336 332 322 321 319 319 318 317 316 316 315 315 315 316 315 319 320 321 317 317 317 317 314 310 305 302 298 290 278 277 279 284 289 288 283 276 275 265 259 257 257 258 258 257 257 252 242 233 234 241 246 248 244 243 241 240 253 264 272 281 282 250 208
109 92 100 108 119 127 134 139 144 138 143 168 200 56 48 39 22 3 357 345 347 339 334 326 317 318 316 318 316 315 313 313 314 314 315 314 315 315 317 319 317 318 317 316 312 307 305 302 299 292 283 278 280 286 292 292 290 282 271 261 250 248 251 259 258 257 255 257 247 244 242 238 242 243 245 243 240 236 244 254 268 278 278 242 209
118 137 136 138 141 137 136 135 139 151 149 171 108 75 62 43 22 4 353 349 347 335 331 327 320 316 313 311 311 311 311 310 312 313 315 316 320 319 316 317 315 312 310 311 309 306 303 302 294 282 282 289 283 286 296 296 292 289 280 258 247 230 245 251 256 259 255 252 252 248 246 245 244 247 246 243 237 232 238 249 257 274 269 238 206
114 117 124 131 132 129 133 141 155 160 168 139 83 76 73 60 20 355 359 350 340 332 322 320 314 310 309 308 309 309 308 310 312 312 314 317 316 316 319 318 315 313 312 311 308 304 304 305 302 298 299 300 302 300 306 314 314 305 291 270 230 228 235 247 251 256 260 251 246 243 247 248 251 250 248 243 239 231 232 244 250 256 267 241 206
131 132 135 132 138 139 147 153 158 165 139 103 82 84 77 53 16 11 5 347 335 327 325 318 316 309 308 307 310 308 310 311 309 311 314 314 317 317 319 319 316 314 312 311 309 309 309 307 300 301 305 306 304 313 316 315 314 313 310 297 241 231 230 238 245 246 249 259 256 250 244 247 248 248 246 244 239 236 235 238 240 248 254 266 225
119 131 132 131 129 134 134 141 158 140 109 96 90 90 69 60 18 15 353 336 334 330 323 319 314 309 306 308 308 310 310 312 313 317 319 318 317 316 315 316 312 314 316 313 314 313 314 307 304 310 308 310 317 319 314 312 314 315 316 319 298 231 230 229 240 239 245 246 251 249 244 240 244 243 242 240 239 238 238 237 243 251 264 275 250
146 140 150 142 141 149 161 155 132 115 100 90 93 83 74 49 30 6 339 338 336 330 321 315 309 305 309 309 310 313 318 320 320 321 320 319 320 323 321 316 315 318 319 319 318 316 305 305 313 307 316 321 320 319 318 315 315 317 321 320 317 301 237 237 231 237 234 240 242 243 242 243 245 245 241 238 236 238 240 238 248 255 259 263 237
119 140 151 150 143 155 149 135 121 107 101 88 96 86 70 50 33 357 342 341 330 327 318 311 308 307 308 310 310 314 317 321 321 322 322 321 324 326 323 322 324 322 325 321 313 304 309 321 314 315 326 328 323 320 316 318 318 319 319 319 316 320 300 231 229 235 238 235 235 235 240 245 247 245 244 240 236 235 234 242 247 251 253 250 212
146 155 153 159 161 157 137 122 115 105 108 92 90 95 82 66 5 4 346 342 331 326 320 309 309 308 308 306 309 314 320 323 326 326 329 328 325 330 326 327 329 330 324 309 307 310 323 320 316 324 331 328 327 322 317 318 320 316 315 316 317 315 316 292 242 228 230 235 233 238 242 244 244 244 244 240 239 235 236 242 249 255 256 235 204
132 141 155 158 148 130 123 119 116 120 103 104 84 95 98 41 1 2 350 341 323 318 312 309 308 308 306 308 313 317 320 324 327 329 327 324 323 326 327 325 329 330 328 308 299 331 325 321 317 332 333 330 327 325 322 320 314 314 315 315 316 314 303 300 288 242 229 228 235 241 244 245 243 241 238 232 225 228 235 242 250 254 250 221 194
160 162 152 155 148 123 124 128 127 125 116 103 101 83 80 45 6 355 351 329 315 304 304 308 313 308 308 312 320 325 326 326 330 334 330 326 328 324 325 327 326 328 318 309 330 333 327 320 322 336 334 329 327 326 322 309 311 318 321 315 315 311 306 303 293 253 233 230 233 235 237 240 240 234 232 230 230 238 244 248 253 249 232 207 194
149 154 166 152 136 133 135 136 136 137 129 117 109 97 79 41 16 355 337 327 309 308 310 311 308 307 311 315 324 327 329 327 331 334 337 333 330 327 329 331 324 324 312 319 315 329 326 316 323 338 334 330 326 325 315 324 332 330 323 317 307 303 298 289 289 264 217 219 224 229 233 235 233 232 230 223 223 224 229 241 244 242 221 201 192
160 169 170 156 142 137 142 138 137 135 130 123 107 103 74 34 13 345 332 337 317 316 311 305 304 310 314 323 328 326 326 327 325 329 330 330 326 328 328 322 326 323 338 340 331 317 324 333 325 338 331 332 333 330 332 337 333 332 329 324 316 307 284 269 265 267 230 205 210 220 218 222 220 221 217 218 219 219 230 234 239 240 216 196 187
136 142 150 135 137 139 144 141 138 135 132 124 117 94 63 36 354 326 330 333 319 319 316 312 310 312 310 326 331 328 327 327 326 327 329 325 330 338 330 329 323 338 345 350 355 349 346 342 338 344 345 342 335 334 336 339 340 339 338 336 335 333 331 296 249 255 239 195 201 211 216 220 217 207 211 210 213 212 224 232 236 228 209 194 185
157 148 143 139 142 140 134 137 141 138 131 127 119 105 88 358 339 339 323 312 307 313 311 303 316 316 320 338 327 329 328 325 326 327 330 329 328 331 336 337 338 342 345 347 354 356 352 353 356 350 349 351 344 341 344 345 346 347 347 347 348 353 353 354 275 244 233 204 198 206 213 212 211 210 211 212 205 210 216 223 229 215 204 195 186